TimeCDT,TemperatureF,Dew PointF,Humidity,Sea Level PressureIn,VisibilityMPH,Wind Direction,Wind SpeedMPH,Gust SpeedMPH,PrecipitationIn,Events,Conditions,WindDirDegrees,DateUTC
12:53 AM,52.0,50.0,93,29.85,10.0,North,16.1,-,N/A,,Overcast,350,2013-04-16 05:53:00
1:53 AM,52.0,51.1,97,29.85,10.0,NNE,8.1,-,N/A,,Overcast,30,2013-04-16 06:53:00
2:16 AM,51.8,51.8,100,29.87,10.0,NNE,9.2,-,N/A,,Mostly Cloudy,20,2013-04-16 07:16:00
2:28 AM,51.8,51.8,100,29.87,10.0,NNE,11.5,-,N/A,,Mostly Cloudy,30,2013-04-16 07:28:00
2:53 AM,51.1,51.1,100,29.84,10.0,NNE,12.7,-,N/A,,Overcast,30,2013-04-16 07:53:00
3:53 AM,51.1,51.1,100,29.84,10.0,NE,8.1,-,N/A,,Overcast,50,2013-04-16 08:53:00
4:53 AM,51.1,51.1,100,29.84,9.0,NNE,9.2,-,N/A,,Scattered Clouds,30,2013-04-16 09:53:00
5:53 AM,52.0,52.0,100,29.85,10.0,NE,6.9,-,N/A,,Overcast,40,2013-04-16 10:53:00
7:53 AM,54.0,53.1,97,29.91,8.0,NE,8.1,-,N/A,,Overcast,50,2013-04-16 12:53:00
8:53 AM,54.0,53.1,97,29.94,8.0,NNE,8.1,-,N/A,,Overcast,30,2013-04-16 13:53:00
9:31 AM,53.6,53.6,100,29.97,8.0,NNE,8.1,-,N/A,,Overcast,30,2013-04-16 14:31:00
9:40 AM,53.6,53.6,100,29.97,9.0,NE,10.4,-,N/A,,Overcast,50,2013-04-16 14:40:00
9:53 AM,55.0,53.1,93,29.95,10.0,NE,6.9,-,N/A,,Overcast,50,2013-04-16 14:53:00
10:53 AM,57.9,55.0,90,29.97,10.0,ENE,6.9,-,N/A,,Overcast,60,2013-04-16 15:53:00
11:53 AM,61.0,57.0,87,29.97,10.0,ENE,4.6,-,N/A,,Overcast,60,2013-04-16 16:53:00
12:53 PM,63.0,57.9,84,29.96,9.0,ENE,4.6,-,N/A,,Overcast,60,2013-04-16 17:53:00
1:53 PM,66.9,60.1,79,29.95,9.0,NE,5.8,-,N/A,,Overcast,40,2013-04-16 18:53:00
2:53 PM,70.0,62.1,76,29.93,8.0,NE,5.8,-,N/A,,Overcast,40,2013-04-16 19:53:00
3:53 PM,73.9,63.0,68,29.91,9.0,Variable,4.6,-,N/A,,Mostly Cloudy,0,2013-04-16 20:53:00
4:53 PM,77.0,64.0,64,29.90,8.0,Calm,Calm,-,N/A,,Clear,0,2013-04-16 21:53:00
5:53 PM,75.9,64.0,67,29.89,10.0,North,8.1,-,N/A,,Clear,360,2013-04-16 22:53:00
6:53 PM,71.1,62.1,73,29.90,10.0,North,9.2,-,N/A,,Clear,360,2013-04-16 23:53:00
7:53 PM,64.9,60.1,84,29.91,10.0,North,9.2,-,N/A,,Clear,360,2013-04-17 00:53:00
8:53 PM,63.0,59.0,87,29.93,10.0,North,6.9,-,N/A,,Overcast,10,2013-04-17 01:53:00
9:53 PM,62.1,59.0,90,29.94,10.0,NNE,8.1,-,N/A,,Mostly Cloudy,20,2013-04-17 02:53:00
10:53 PM,60.1,57.9,93,29.94,10.0,NNE,6.9,-,N/A,,Scattered Clouds,30,2013-04-17 03:53:00
11:53 PM,60.1,57.9,93,29.94,10.0,NNE,4.6,-,N/A,,Overcast,30,2013-04-17 04:53:00